Regional Weather Roundup
Issued by NWS Upton, NY

Current Version | Previous Version | Graphics & Text | Print | Product List | Glossary Off
Versions: 1 2 3 4 5 6 7 8 9 10 11 12 13 14 15 16 17 18 19 20 21 22 23 24 25 26 27 28 29 30 31 32 33 34 35 36 37 38 39 40 41 42 43 44 45 46 47 48 49 50

000
ASUS41 KOKX 180208
RWROKX

REGIONAL WEATHER ROUNDUP
NATIONAL WEATHER SERVICE NEW YORK NY
900 PM EST TUE JAN 17 2017

NOTE: "FAIR" INDICATES FEW OR NO CLOUDS BELOW 12,000 FEET WITH NO
SIGNIFICANT WEATHER AND/OR OBSTRUCTIONS TO VISIBILITY.

NYZ071-072-176-178-NJZ106-104-180300-
NEW YORK CITY METRO AREA

CITY           SKY/WX    TMP DP  RH WIND       PRES   REMARKS
Central Park   LGT RAIN  39  38  96 NE6       30.05F FOG     WCI  35
Wall St Helipt CLOUDY    40  39  97 NE12      30.03F WCI  33
Bronx Bot Gard NOT AVBL
LaGuardia APRT LGT RAIN  40  37  89 NE12      30.02F FOG     WCI  33
Kennedy INTL   LGT RAIN  42  38  85 NE7       30.03F FOG
Breezy Point     N/A     39 N/A N/A E9          N/A  WCI  33
Newark/Liberty LGT RAIN  41  39  93 NE7       30.02F FOG
Teterboro      DRIZZLE   40  37  89 VRB6      30.03F FOG
$$

NYZ177-179-078>081-180300-
LONG ISLAND NEW YORK

CITY           SKY/WX    TMP DP  RH WIND       PRES   REMARKS
Jones Beach      N/A     39 N/A N/A E10         N/A  WCI  32
Matinecock PT  NOT AVBL
Farmingdale    LGT RAIN  40  39  97 E7        30.02F FOG
MacArthur/ISP  LGT RAIN  39  39 100 E6        30.03F FOG     WCI  35
Shirley        LGT RAIN  39  39 100 VRB5      30.04F FOG
Westhampton    LGT RAIN  40  39  97 E8        30.07F FOG     WCI  34
Southampton    NOT AVBL
Bridgehampton  NOT AVBL
East Hampton   LGT RAIN  39  37  93 E9        30.06F WCI  33
Montauk          N/A     41  39  93 E7        30.08F
$$

NYZ052-065-067-180300-
HUDSON VALLEY

CITY           SKY/WX    TMP DP  RH WIND       PRES   REMARKS
White Plains   RAIN      36  34  92 E8        30.02S FOG     WCI  30
Newburgh       NOT AVBL
Montgomery     LGT RAIN  34  32  92 N8        30.02F FOG     WCI  27
Poughkeepsie   CLOUDY    34  31  88 N5        30.05F WCI  30
Albany         LGT RAIN  34  31  88 S7        30.04F FOG     WCI  28
$$

NJZ001-105-106-008-010-013-015-019>022-104-180300-
NEW JERSEY

CITY           SKY/WX    TMP DP  RH WIND       PRES   REMARKS
Newark/Liberty LGT RAIN  41  39  93 NE7       30.02F FOG
Teterboro      DRIZZLE   40  37  89 VRB6      30.03F FOG
Caldwell       CLOUDY    38  36  92 VRB5      30.03F FOG     WCI  34
Somerville     CLOUDY    40  38  93 NE5       30.00S
Linden         LGT RAIN  41  39  95 E8        30.02F
Sussex         LGT RAIN  34  34 100 N8        30.01F FOG     WCI  27
Andover          N/A     35  34  96 CALM      30.00F
Trenton        LGT RAIN  42  41  96 E5        29.99R FOG
Millville      CLOUDY    45  45 100 NE3       29.97F FOG
Atlantic City  FOG       46  45  96 S5        29.98F VSB 1/2
Wrightstown    CLOUDY    42  41  96 CALM      29.96S FOG
Toms River     LGT RAIN  44  43  96 CALM      30.00F FOG
Belmar         LGT RAIN  45  44  97 E6        30.00F FOG
$$

PAZ047>061-062-071-180300-
EASTERN PENNSYLVANIA

CITY           SKY/WX    TMP DP  RH WIND       PRES   REMARKS
Philadelphia   CLOUDY    43  42  97 E6        29.99S FOG
Allentown      CLOUDY    37  34  89 NE6       29.99F FOG     WCI  32
Scranton       RAIN      37  36  96 VRB3      29.96R FOG
$$

CTZ002-004>006-009-010-012-RIZ004-006-007-MAZ004-011-015-180300-
SOUTHERN NEW ENGLAND
 IN CT

CITY           SKY/WX    TMP DP  RH WIND       PRES   REMARKS
Bradley INTL   LGT RAIN  33  32  96 NW3       30.10F FOG
Hartford       LGT RAIN  34  33  96 N3        30.10F FOG
Danbury        LGT RAIN  34  31  88 E7        30.06F WCI  28
Wtrbury/Oxford LGT RAIN  34  28  80 E6        30.05F FOG     WCI  29
Bridgeport     CLOUDY    38  33  82 NE12      30.05F WCI  30
Meriden        LGT RAIN  36  32  85 N5        30.08F WCI  32
New Haven      CLOUDY    36  32  85 NE8       30.05F WCI  30
Chester        LGT RAIN  34  32  93 NE6       30.06F WCI  29
Groton         LGT RAIN  39  34  82 NE9       30.09F WCI  33
Wilimantic     CLOUDY    38  35  89 E3        30.09F

 IN RI

CITY           SKY/WX    TMP DP  RH WIND       PRES   REMARKS
Providence     LGT RAIN  37  35  92 NE6       30.12F WCI  32
Block Island   NOT AVBL
Westerly       CLOUDY    39  33  79 NE7       30.10F WCI  34
 IN MA

CITY           SKY/WX    TMP DP  RH WIND       PRES   REMARKS
Boston         LGT RAIN  37  35  92 E21       30.16F WCI  26
Worcester      FRZ RAIN  32  31  96 E7        30.09F VSB 1/4 WCI  26
Westfield      LGT RAIN  33  33 100 CALM      30.09F FOG
Provincetown   LGT RAIN  39  36  89 E10G18    30.16F WCI  32
Nantucket      CLOUDY    41  37  86 E12       30.14S
$$

ANZ330-335-338-340-345-350-353-355-180300-
COASTAL MARINE OBSERVATIONS


STATION/POSITION TIME  SKY/WX   TEMP    WIND        PRES    VSBY  WAVE
                                AIR SEA DIR/SP/G                  HT/PER
                 (UTC)          (F)     (DEG/KT/KT) (MB)    (MI)  (FT/S)
NY HARB ENTRANCE 0050            44 44  110/ 14/ 16 1016.2          2/ 3
20 S FIRE ISLAND 0050            45 45  100/ 12/ 14 1017.0          2/ 3
GREAT SOUTH BAY  NOT AVBL
23 SSW MONTAUK P 0050            44 48  130/ 14/ 16 1019.0          2/ 3
15 E BARNEGAT LI 0130               43                N/A           2/ 4
HUDSON CANYON    0050            51 53              1017.2          2/ 3
KINGS POINT      0130            38 38              1017.0
EXECUTION ROCKS  0145            38      70/ 14/ 17   N/A
CENTRAL LI SOUND 0100            40      90/ 16/ 17   N/A           2/ 4
EASTERN LI SOUND NOT AVBL
ROBBINS REEF     0130            40      60/  9/ 11 1016.8
$$


>>>>>>>>>>>>>>>>>>>>>>>>>>>> KEY <<<<<<<<<<<<<<<<<<<<<<<<<<<
>                                                          <
>     SKY/WX - Sky Condition/Present Weather               <
>     TMP    - Temperature in Fahrenheit                   <
>     DP     - Dew Point in Fahrenheit                     <
>     RH     - Relative Humidity in Percent                <
>     WIND   - Direction (from) and Speed in MPH           <
>     PRES   - Mean Sea Level Pressure (inches of Hg)      <
>     WCI    - Wind Chill Index                            <
>     VSB    - VISIBILITY IN MILES                         <
>     HX     - HEAT INDEX                                  <
>     TC     - TEMPERATURE IN CELSIUS                      <
>     VRB    - VARIABLE WIND DIRECTION                     <
>                                                          <
>>>>>>>>>>>>>>>>>>>>>>>>>>>> KEY <<<<<<<<<<<<<<<<<<<<<<<<<<<



USA.gov is the U.S. government's official web portal to all federal, state and local government web resources and services.